This demonstration page uses our WeatherBlox Daily Observations layout. Learn more.

Hourly Observations for November 18, 2020

Temp ( °F °C ) Dew Point ( °F °C ) Humidity (%) Winds ( mph kmh ) Pressure ( in mb ) Visibility ( mi km ) Precip ( " mm )
10:55 am 10:55 Cloudy 37 3 23 -5 56 56 NNW 14 22 30.61 1036 10 16.0934 0 0
11:15 am 11:15 Cloudy 37 3 25 -4 60 60 NNW 14 22 30.6 1036 10 16.0934 0 0
11:35 am 11:35 Cloudy 37 3 23 -5 56 56 N 14 22 30.59 1036 10 16.0934 0 0
11:55 am 11:55 Cloudy 39 4 25 -4 56 56 N 13 20 30.59 1036 10 16.0934 0 0
12:15 pm 12:15 Cloudy 39 4 23 -5 52 52 NNW 16 26 30.59 1036 10 16.0934 0 0
12:35 pm 12:35 undefined 41 5 25 -4 53 53 NNW 14 22 30.57 1035 N/A 0 0
12:55 pm 12:55 undefined 41 5 23 -5 49 49 NNW 15 24 30.56 1035 10 16.0934 0 0
1:15 pm 13:15 Partly Cloudy 41 5 27 -3 57 57 NNW 10 17 30.56 1035 10 16.0934 0 0
1:35 pm 13:35 Partly Cloudy 41 5 25 -4 53 53 N 14 22 30.55 1035 10 16.0934 0 0
1:55 pm 13:55 Sunny 41 5 25 -4 53 53 N 14 22 30.55 1035 10 16.0934 0 0
2:15 pm 14:15 Sunny 43 6 25 -4 49 49 N 8 13 30.55 1035 10 16.0934 0 0
2:35 pm 14:35 Sunny 41 5 25 -4 53 53 NNE 6 9 30.55 1035 10 16.0934 0 0
2:55 pm 14:55 Sunny 41 5 25 -4 53 53 NNE 8 13 30.54 1034 10 16.0934 0 0
3:15 pm 15:15 Sunny 41 5 25 -4 53 53 N 10 17 30.55 1035 10 16.0934 0 0
3:35 pm 15:35 Sunny 41 5 25 -4 53 53 N 8 13 30.55 1035 10 16.0934 0 0
3:55 pm 15:55 Sunny 41 5 25 -4 53 53 N 9 15 30.55 1035 10 16.0934 0 0
4:15 pm 16:15 Sunny 41 5 25 -4 53 53 N 5 7 30.55 1035 10 16.0934 0 0
4:35 pm 16:35 Sunny 41 5 23 -5 49 49 N 7 11 30.55 1035 10 16.0934 0 0
4:55 pm 16:55 Clear 39 4 25 -4 56 56 NNE 5 7 30.56 1035 10 16.0934 0 0
5:15 pm 17:15 Clear 37 3 25 -4 60 60 NNE 7 11 30.58 1035 10 16.0934 0 0
5:35 pm 17:35 Clear 37 3 25 -4 60 60 NNE 6 9 30.58 1035 10 16.0934 0 0
5:55 pm 17:55 Clear 37 3 25 -4 60 60 NE 3 6 30.59 1036 10 16.0934 0 0
6:15 pm 18:15 Clear 36 2 25 -4 65 65 NE 3 6 30.59 1036 10 16.0934 0 0
6:35 pm 18:35 Clear 36 2 25 -4 65 65 NE 3 6 30.6 1036 10 16.0934 0 0
6:55 pm 18:55 Clear 36 2 25 -4 65 65 Calm 30.61 1037 10 16.0934 0 0
7:15 pm 19:15 Clear 36 2 27 -3 70 70 Calm 30.62 1037 10 16.0934 0 0
7:35 pm 19:35 Clear 32 0 27 -3 80 80 Calm 30.62 1037 10 16.0934 0 0
7:55 pm 19:55 Clear 32 0 27 -3 80 80 Calm 30.62 1037 10 16.0934 0 0
8:15 pm 20:15 Clear 32 0 27 -3 80 80 Calm 30.63 1037 10 16.0934 0 0
8:35 pm 20:35 Clear 32 0 28 -2 87 87 Calm 30.63 1037 10 16.0934 0 0
8:55 pm 20:55 Clear 32 0 28 -2 87 87 Calm 30.63 1037 10 16.0934 0 0
9:15 pm 21:15 Clear 30 -1 27 -3 86 86 Calm 30.63 1037 10 16.0934 0 0
9:35 pm 21:35 Clear 30 -1 27 -3 86 86 W 3 6 30.63 1037 10 16.0934 0 0
9:55 pm 21:55 Clear 30 -1 27 -3 86 86 Calm 30.63 1037 10 16.0934 0 0
10:15 pm 22:15 Clear 30 -1 27 -3 86 86 Calm 30.63 1037 10 16.0934 0 0
10:35 pm 22:35 Clear 28 -2 27 -3 93 93 Calm 30.64 1037 10 16.0934 0 0
10:55 pm 22:55 Clear 28 -2 27 -3 93 93 WSW 3 6 30.64 1037 10 16.0934 0 0
11:15 pm 23:15 Clear 28 -2 27 -3 93 93 Calm 30.64 1037 10 16.0934 0 0
11:35 pm 23:35 Clear 28 -2 27 -3 93 93 Calm 30.64 1037 10 16.0934 0 0
11:55 pm 23:55 Clear 28 -2 27 -3 93 93 S 5 7 30.64 1037 10 16.0934 0 0

Powered by AerisWeather